time,it,sc,msc,dt,rho,mx,my,mz,p,bx,by,bz,pmin,pmax,dst_sm,dstflx_R=3.0,AL,AU,AE
2011-08-05 15:00:00,50000,0,0,0.0,4.31046,-3.02768e-15,4.63042e-17,-6.24042e-17,0.00843159,0.134265,0.313643,2.16718,2.48344e-05,1.00551,4.62544,0.0882401,-12.47,12.11,24.57
2011-08-05 15:01:00,51110,0,0,0.0295839,4.31185,-3.02881e-15,4.62029e-17,-6.23613e-17,0.00843232,0.134093,0.309207,2.16991,2.42648e-05,1.00577,4.58072,0.170115,1.25,17.27,16.02
2011-08-05 15:02:00,52219,0,0,0.0381861,4.3156,-3.03148e-15,4.58965e-17,-6.22585e-17,0.00843861,0.133925,0.300869,2.17381,2.36989e-05,1.00295,4.58978,0.254225,1.63,18.69,17.06
2011-08-05 15:03:00,53328,0,0,0.0368321,4.31958,-3.03422e-15,4.54194e-17,-6.22092e-17,0.00844614,0.133761,0.301003,2.17355,2.31861e-05,1.00086,4.69799,0.341439,1.79,19.62,17.83
2011-08-05 15:04:00,54437,0,0,0.0357548,4.32277,-3.03633e-15,4.47926e-17,-6.23844e-17,0.00845199,0.133602,0.303018,2.17199,2.27211e-05,1.00482,4.73421,0.421984,1.83,20.11,18.28
2011-08-05 15:05:00,55546,0,0,0.0347515,4.3258,-3.03822e-15,4.40069e-17,-6.29049e-17,0.00845837,0.133448,0.299665,2.17137,2.22849e-05,1.0225,4.7476,0.491404,1.79,20.22,18.43
2011-08-05 15:06:00,56655,0,0,0.0341217,4.32868,-3.03996e-15,4.31779e-17,-6.36442e-17,0.00846538,0.133298,0.29446,2.17226,2.18803e-05,0.985467,4.78147,0.603455,1.55,20.06,18.51
2011-08-05 15:07:00,57764,0,0,0.0345712,4.33093,-3.04126e-15,4.237e-17,-6.44423e-17,0.00847017,0.133152,0.291479,2.17562,2.14977e-05,0.996954,4.89648,0.757679,1.49,20.13,18.65
2011-08-05 15:08:00,58873,0,0,0.0347305,4.33144,-3.04123e-15,4.14658e-17,-6.52953e-17,0.00846725,0.13301,0.297222,2.17763,2.1123e-05,0.982771,4.94465,0.793389,1.77,20.21,18.43
2011-08-05 15:09:00,59982,0,0,0.0329417,4.32965,-3.03955e-15,4.06368e-17,-6.60997e-17,0.00845814,0.132872,0.312305,2.17622,1e-05,0.950751,5.10543,0.918757,1.4,20.03,18.63
2011-08-05 15:10:00,61091,0,0,0.0310756,4.32591,-3.03662e-15,4.02179e-17,-6.67211e-17,0.00845241,0.132735,0.31831,2.17826,1e-05,0.96852,5.08805,1.01037,1.18,20.04,18.86
2011-08-05 15:11:00,62200,0,0,0.0308332,4.31936,-3.0318e-15,3.99166e-17,-6.71621e-17,0.00844066,0.132602,0.310379,2.18403,1e-05,0.897773,5.07849,1.05584,1.12,19.79,18.67
2011-08-05 15:12:00,63309,0,0,0.0297378,4.31024,-3.02509e-15,3.93786e-17,-6.7533e-17,0.00841721,0.132471,0.305457,2.18726,1e-05,0.882408,5.1046,1.06713,0.95,19.22,18.27
2011-08-05 15:13:00,64418,0,0,0.0280993,4.30148,-3.01848e-15,3.86488e-17,-6.7992e-17,0.00839549,0.132342,0.306318,2.18855,1e-05,0.878496,5.15216,1.09359,0.94,18.74,17.8
2011-08-05 15:14:00,65527,0,0,0.0273204,4.2935,-3.01232e-15,3.78282e-17,-6.85346e-17,0.00837742,0.132218,0.311021,2.19019,1e-05,0.860496,4.99077,0.986277,1.19,18.14,16.94
2011-08-05 15:15:00,66636,0,0,0.0263263,4.28451,-3.00557e-15,3.70386e-17,-6.9023e-17,0.00835625,0.132099,0.317064,2.19324,1e-05,0.831101,4.84455,0.921529,1.13,17.41,16.27
2011-08-05 15:16:00,67745,0,0,0.026873,4.27566,-2.99909e-15,3.64696e-17,-6.94546e-17,0.00833055,0.131984,0.32541,2.19618,1e-05,0.808506,4.75589,0.871561,0.96,16.91,15.94
2011-08-05 15:17:00,68854,0,0,0.0284345,4.26861,-2.99409e-15,3.62882e-17,-6.98659e-17,0.00829985,0.131872,0.336165,2.1966,1e-05,0.774417,4.57397,0.690488,1.25,16.49,15.25
2011-08-05 15:18:00,69963,0,0,0.0296276,4.26184,-2.98917e-15,3.59692e-17,-7.0292e-17,0.0082699,0.131764,0.345728,2.19572,1e-05,0.714363,4.256,0.459909,1.37,15.95,14.58
2011-08-05 15:19:00,71072,0,0,0.0297679,4.25377,-2.9829e-15,3.49984e-17,-7.07656e-17,0.0082474,0.131662,0.35771,2.19411,1e-05,0.672742,4.06,0.345887,1.23,15.56,14.32
2011-08-05 15:20:00,72181,0,0,0.0343062,4.24658,-2.97686e-15,3.37659e-17,-7.14421e-17,0.00822734,0.131565,0.366217,2.19067,1e-05,0.671323,3.98811,0.304883,0.9,15.47,14.57
2011-08-05 15:21:00,73290,0,0,0.0387172,4.24179,-2.97217e-15,3.26211e-17,-7.24003e-17,0.00820394,0.131472,0.363587,2.18791,1e-05,0.687198,3.97212,0.323029,0.56,15.33,14.77
2011-08-05 15:22:00,74399,0,0,0.0407556,4.23676,-2.96707e-15,3.14659e-17,-7.33043e-17,0.00817543,0.131383,0.354173,2.18486,1e-05,0.693213,4.01435,0.3513,0.27,15.36,15.09
2011-08-05 15:23:00,75508,0,0,0.040988,4.22978,-2.96046e-15,3.02882e-17,-7.39559e-17,0.00814297,0.131297,0.339975,2.17939,1e-05,0.705428,4.2273,0.48933,-1.57,14.88,16.45
2011-08-05 15:24:00,76617,0,0,0.0399825,4.22268,-2.95377e-15,2.94523e-17,-7.46165e-17,0.00811467,0.13121,0.318591,2.17478,1e-05,0.73113,4.393,0.634823,-2.81,14.89,17.7
2011-08-05 15:25:00,77726,0,0,0.0393579,4.21693,-2.94814e-15,2.9271e-17,-7.55e-17,0.00809707,0.131121,0.281508,2.17089,1e-05,0.721708,4.27025,0.512733,-2.69,15.33,18.02
2011-08-05 15:26:00,78835,0,0,0.0358317,4.212,-2.94311e-15,2.92929e-17,-7.65194e-17,0.00808416,0.131032,0.233302,2.16503,1e-05,0.650971,4.04714,0.336498,-2.08,15.55,17.63
2011-08-05 15:27:00,79944,0,0,0.0304956,4.20743,-2.93818e-15,2.90546e-17,-7.75852e-17,0.00807203,0.130946,0.185685,2.15868,1e-05,0.576984,4.05624,0.39805,-2.31,15.59,17.91
2011-08-05 15:28:00,81053,0,0,0.0336142,4.20217,-2.93249e-15,2.86763e-17,-7.86475e-17,0.0080581,0.130861,0.137771,2.15209,1e-05,0.610136,4.18835,0.476921,-2.1,16.37,18.46
2011-08-05 15:29:00,82162,0,0,0.0357287,4.19516,-2.92525e-15,2.82772e-17,-7.96672e-17,0.00803917,0.130778,0.08753,2.14481,1e-05,0.634872,4.20775,0.437942,-1.92,16.88,18.8
2011-08-05 15:30:00,83271,0,0,0.0363713,4.18748,-2.91735e-15,2.77562e-17,-8.08056e-17,0.0080196,0.130697,0.0371462,2.1355,1e-05,0.621959,4.30016,0.457256,-2.16,16.86,19.02
2011-08-05 15:31:00,84380,0,0,0.0361341,4.17994,-2.9095e-15,2.70365e-17,-8.21525e-17,0.00800359,0.130622,-0.0140616,2.12192,1e-05,0.603588,4.58078,0.601198,-3.47,16.64,20.11
2011-08-05 15:32:00,85489,0,0,0.0367671,4.17148,-2.90096e-15,2.62065e-17,-8.34311e-17,0.0079895,0.130551,-0.0669965,2.10486,1e-05,0.616979,4.73856,0.628466,-3.7,16.47,20.17
2011-08-05 15:33:00,86598,0,0,0.036115,4.16166,-2.89148e-15,2.53469e-17,-8.45247e-17,0.00797648,0.130487,-0.121444,2.08631,1e-05,0.595035,4.78692,0.622461,-3.63,16.36,19.99
2011-08-05 15:34:00,87707,0,0,0.0338281,4.15158,-2.88185e-15,2.44851e-17,-8.56722e-17,0.00796688,0.13043,-0.17657,2.06414,1e-05,0.567846,4.91205,0.6329,-3.45,16.05,19.5
2011-08-05 15:35:00,88816,0,0,0.0330421,4.14077,-2.87179e-15,2.35725e-17,-8.69183e-17,0.00795802,0.13038,-0.232062,2.03891,1e-05,0.554023,4.89266,0.550639,-2.65,16.05,18.7
2011-08-05 15:36:00,89925,0,0,0.0308264,4.1273,-2.85998e-15,2.2502e-17,-8.80823e-17,0.00794268,0.130341,-0.288678,2.01049,1e-05,0.522854,4.88085,0.454518,-1.93,15.67,17.6
2011-08-05 15:37:00,91034,0,0,0.0292686,4.11184,-2.84682e-15,2.14238e-17,-8.92123e-17,0.00792317,0.130317,-0.344997,1.97619,1e-05,0.496051,5.01251,0.448276,-2.27,14.37,16.64
2011-08-05 15:38:00,92143,0,0,0.0306938,4.09652,-2.83371e-15,2.0597e-17,-9.04876e-17,0.00790701,0.13031,-0.398912,1.93768,1e-05,0.501271,5.16988,0.456242,-2.88,14.01,16.89
2011-08-05 15:39:00,93252,0,0,0.0324994,4.0809,-2.82028e-15,1.98369e-17,-9.17454e-17,0.00788613,0.130322,-0.448886,1.89917,1e-05,0.509473,5.16149,0.406283,-3.3,13.65,16.95
2011-08-05 15:40:00,94361,0,0,0.0303922,4.06391,-2.8058e-15,1.88717e-17,-9.28123e-17,0.00785269,0.130351,-0.49836,1.86626,1e-05,0.573811,5.01265,0.360162,-4.02,12.83,16.85
2011-08-05 15:41:00,95470,0,0,0.0267156,4.0461,-2.79062e-15,1.77342e-17,-9.39058e-17,0.00781627,0.130396,-0.549193,1.83805,1e-05,0.588133,4.91502,0.336839,-4.67,13.86,18.53
2011-08-05 15:42:00,96579,0,0,0.0251051,4.02943,-2.77607e-15,1.66047e-17,-9.52704e-17,0.00778388,0.130453,-0.598539,1.81013,1e-05,0.57901,4.85792,0.27109,-5.07,14.58,19.65
2011-08-05 15:43:00,97688,0,0,0.0227505,4.01652,-2.76392e-15,1.57523e-17,-9.70514e-17,0.00775563,0.13052,-0.637201,1.77605,1e-05,0.549705,4.85441,0.111626,-5.61,14.86,20.47
2011-08-05 15:44:00,98797,0,0,0.0210229,4.00549,-2.75308e-15,1.51265e-17,-9.89175e-17,0.00772372,0.130597,-0.667687,1.73679,1e-05,0.52151,4.77068,-0.0396846,-5.94,15.4,21.34
2011-08-05 15:45:00,99906,0,0,0.018975,3.99329,-2.74159e-15,1.4516e-17,-1.00457e-16,0.00768259,0.130682,-0.702157,1.70269,1e-05,0.486223,4.48916,-0.188672,-6.23,15.45,21.69
2011-08-05 15:46:00,101015,0,0,0.0183577,3.98191,-2.73065e-15,1.39797e-17,-1.01904e-16,0.00764053,0.130774,-0.738163,1.67142,1e-05,0.436433,4.28336,-0.352963,-6.69,15.54,22.23
2011-08-05 15:47:00,102124,0,0,0.0194367,3.97259,-2.72103e-15,1.35506e-17,-1.03399e-16,0.00760315,0.130876,-0.774538,1.63991,1e-05,0.405063,4.17046,-0.45907,-7.26,15.46,22.72
2011-08-05 15:48:00,103233,0,0,0.0199582,3.96344,-2.71151e-15,1.31332e-17,-1.04728e-16,0.00756591,0.130983,-0.811408,1.61041,1e-05,0.415064,4.00972,-0.614978,-7.53,15.83,23.36
2011-08-05 15:49:00,104342,0,0,0.0183273,3.95497,-2.70241e-15,1.26224e-17,-1.05823e-16,0.00752723,0.131097,-0.848175,1.58263,1e-05,0.443264,3.86407,-0.710642,-7.87,16.11,23.98
2011-08-05 15:50:00,105451,0,0,0.0166783,3.94896,-2.69482e-15,1.19606e-17,-1.06714e-16,0.00748923,0.131217,-0.882376,1.5567,1e-05,0.443692,3.98665,-0.594421,-8.42,16.05,24.46
2011-08-05 15:51:00,106560,0,0,0.0133039,3.94352,-2.68752e-15,1.13437e-17,-1.07234e-16,0.00745374,0.131339,-0.910943,1.52884,1e-05,0.484882,4.32306,-0.43838,-8.3,16.55,24.85
2011-08-05 15:52:00,107669,0,0,0.00897325,3.93606,-2.67886e-15,1.08992e-17,-1.07325e-16,0.00742067,0.131459,-0.938045,1.50581,1e-05,0.522169,4.27887,-0.452848,-7.58,18.25,25.83
2011-08-05 15:53:00,108778,0,0,0.00481716,3.9247,-2.66752e-15,1.03009e-17,-1.07365e-16,0.0073861,0.131573,-0.970625,1.49073,1e-05,0.514532,4.20084,-0.445585,-7.84,19.15,26.99
2011-08-05 15:54:00,109887,0,0,0.000342142,3.90906,-2.65321e-15,9.43463e-18,-1.0759e-16,0.00734754,0.131679,-1.00794,1.47289,1e-05,0.522189,4.38235,-0.357374,-8.22,19.82,28.03
2011-08-05 15:55:00,110995,0,0,0.0480185,3.89134,-2.63742e-15,8.524190000000001e-18,-1.07953e-16,0.00730631,0.131775,-1.04508,1.45131,1e-05,0.518909,4.43953,-0.395575,-8.77,21.16,29.93
2011-08-05 15:56:00,112103,0,0,0.0428431,3.87297,-2.62105e-15,7.66158e-18,-1.08349e-16,0.00726212,0.131863,-1.08154,1.42936,1e-05,0.519045,4.47366,-0.403839,-9.16,21.87,31.03
2011-08-05 15:57:00,113211,0,0,0.0391416,3.85458,-2.60438e-15,6.822380000000001e-18,-1.08643e-16,0.00721437,0.131942,-1.11563,1.40708,1e-05,0.526761,4.54411,-0.389384,-9.59,21.53,31.12
2011-08-05 15:58:00,114319,0,0,0.0361061,3.83554,-2.58707e-15,5.89199e-18,-1.09106e-16,0.0071642,0.132011,-1.14683,1.3823,1e-05,0.551299,4.69628,-0.364532,-9.83,21.44,31.27
2011-08-05 15:59:00,115427,0,0,0.033234,3.81512,-2.56881e-15,4.7612200000000015e-18,-1.09869e-16,0.00711266,0.132071,-1.17843,1.35585,1e-05,0.556509,4.66831,-0.455562,-9.81,22.1,31.91
2011-08-05 16:00:00,116535,0,0,0.0293806,3.79402,-2.55002e-15,3.4120500000000007e-18,-1.10466e-16,0.00705938,0.132118,-1.20963,1.33052,1e-05,0.515218,4.31183,-0.750121,-9.75,23.66,33.41
2011-08-05 16:01:00,117643,0,0,0.024369,3.77167,-2.5305e-15,2.0394100000000002e-18,-1.10659e-16,0.00700458,0.132152,-1.2422,1.30692,1e-05,0.496554,3.87819,-1.01474,-10.36,24.43,34.79
2011-08-05 16:02:00,118751,0,0,0.0216349,3.74951,-2.51129e-15,8.14441e-19,-1.10663e-16,0.00695113,0.132174,-1.27259,1.28189,1e-05,0.46732,3.65833,-1.17952,-11.26,23.39,34.65
2011-08-05 16:03:00,119859,0,0,0.022694,3.73286,-2.49576e-15,-3.39347e-19,-1.10811e-16,0.00690445,0.132188,-1.29858,1.25317,1e-05,0.441507,3.58312,-1.29359,-12.08,21.31,33.4
2011-08-05 16:04:00,120967,0,0,0.0263274,3.72182,-2.4841e-15,-1.36624e-18,-1.11219e-16,0.00686429,0.132198,-1.32407,1.22528,1e-05,0.444465,3.53198,-1.3476,-12.21,18.44,30.66
2011-08-05 16:05:00,122075,0,0,0.0305188,3.71301,-2.47425e-15,-2.1733700000000007e-18,-1.11784e-16,0.00682786,0.132206,-1.34688,1.20066,1e-05,0.504673,3.57391,-1.31887,-12.31,16.15,28.46
2011-08-05 16:06:00,123183,0,0,0.0340957,3.70526,-2.4653e-15,-2.7979200000000002e-18,-1.12463e-16,0.00679554,0.13221,-1.36942,1.17708,1e-05,0.532837,3.63286,-1.32854,-12.3,14.47,26.77
2011-08-05 16:07:00,124291,0,0,0.0351571,3.69867,-2.45721e-15,-3.2896400000000007e-18,-1.13157e-16,0.0067681,0.132207,-1.39338,1.15335,1e-05,0.61472,3.66818,-1.33312,-12.27,13.62,25.89
2011-08-05 16:08:00,125399,0,0,0.0341459,3.69431,-2.45072e-15,-3.6738200000000015e-18,-1.13851e-16,0.00674572,0.132197,-1.41814,1.12926,1e-05,0.649159,3.68652,-1.34005,-12.46,12.96,25.42
2011-08-05 16:09:00,126507,0,0,0.0323538,3.6935,-2.44671e-15,-3.94139e-18,-1.14715e-16,0.00672771,0.13218,-1.44318,1.10574,1e-05,0.668714,3.64344,-1.35053,-12.99,12.33,25.32
2011-08-05 16:10:00,127615,0,0,0.0320648,3.69563,-2.4448e-15,-4.1798100000000004e-18,-1.15637e-16,0.00671587,0.132155,-1.46977,1.08276,1e-05,0.650808,3.75749,-1.24515,-13.56,10.97,24.54
2011-08-05 16:11:00,128723,0,0,0.0339304,3.69895,-2.44382e-15,-4.48641e-18,-1.16349e-16,0.00671212,0.13212,-1.49923,1.0587,1e-05,0.588422,4.00272,-1.09253,-13.95,9.64,23.59
2011-08-05 16:12:00,129831,0,0,0.0336632,3.70356,-2.44375e-15,-4.67865e-18,-1.16961e-16,0.00671208,0.132078,-1.52749,1.0361,1e-05,0.523916,4.12413,-1.03307,-13.75,8.96,22.71
2011-08-05 16:13:00,130939,0,0,0.0329673,3.71079,-2.44547e-15,-4.77429e-18,-1.17513e-16,0.00671227,0.132031,-1.55419,1.01368,1e-05,0.494075,4.14946,-1.07965,-13.49,9.85,23.34
2011-08-05 16:14:00,132047,0,0,0.0304901,3.72232,-2.45009e-15,-5.13511e-18,-1.17839e-16,0.00671429,0.131978,-1.57971,0.992732,1e-05,0.486558,4.05826,-1.11147,-13.65,10.61,24.26
2011-08-05 16:15:00,133155,0,0,0.0289501,3.73409,-2.45508e-15,-5.60095e-18,-1.18559e-16,0.00671221,0.131919,-1.60579,0.971212,1e-05,0.493141,4.12828,-1.07303,-13.96,10.39,24.35
2011-08-05 16:16:00,134263,0,0,0.0297443,3.7419,-2.45777e-15,-5.863290000000001e-18,-1.20069e-16,0.00670257,0.131855,-1.63199,0.947876,1e-05,0.5003,4.34643,-0.900985,-14.17,8.86,23.03
2011-08-05 16:17:00,135371,0,0,0.0324021,3.74758,-2.45922e-15,-5.970180000000001e-18,-1.21709e-16,0.00669341,0.131788,-1.66006,0.926697,1e-05,0.507545,4.56372,-0.752963,-14.12,8.47,22.59
2011-08-05 16:18:00,136479,0,0,0.0333692,3.7509,-2.45922e-15,-6.1205100000000004e-18,-1.23112e-16,0.00668923,0.131719,-1.69095,0.912061,1e-05,0.515637,4.50808,-0.715808,-14.09,9.8,23.89
2011-08-05 16:19:00,137587,0,0,0.0328271,3.74976,-2.45634e-15,-6.528300000000002e-18,-1.2429e-16,0.00668811,0.131647,-1.72631,0.896209,1e-05,0.523468,4.68657,-0.665615,-14.71,10.72,25.43
2011-08-05 16:20:00,138695,0,0,0.0319061,3.74663,-2.45213e-15,-6.86176e-18,-1.24795e-16,0.00668912,0.131572,-1.76245,0.884666,1e-05,0.531027,4.64109,-0.538597,-15.43,10.78,26.21
2011-08-05 16:21:00,139803,0,0,0.0319768,3.74291,-2.44747e-15,-6.877960000000002e-18,-1.24509e-16,0.00668632,0.131493,-1.79982,0.880048,1e-05,0.535358,4.7423,-0.434622,-16.04,11.55,27.59
2011-08-05 16:22:00,140911,0,0,0.0317216,3.73479,-2.43987e-15,-6.85855e-18,-1.24193e-16,0.00667133,0.13141,-1.84556,0.866077,1e-05,0.539551,5.00901,-0.400165,-16.33,12.82,29.14
2011-08-05 16:23:00,142019,0,0,0.0304047,3.72289,-2.42978e-15,-6.7910700000000016e-18,-1.2398e-16,0.00664637,0.131322,-1.89307,0.853477,1e-05,0.545001,4.84184,-0.510814,-16.86,14.45,31.31
2011-08-05 16:24:00,143127,0,0,0.0275649,3.71049,-2.41941e-15,-6.50112e-18,-1.23586e-16,0.00661951,0.13123,-1.9401,0.848615,1e-05,0.551997,4.42862,-0.724629,-17.71,16.65,34.36
2011-08-05 16:25:00,144235,0,0,0.0249464,3.69855,-2.40948e-15,-6.1558300000000015e-18,-1.2301e-16,0.00659385,0.131131,-1.98652,0.845153,1e-05,0.558613,4.02495,-1.00667,-18.94,17.51,36.45
2011-08-05 16:26:00,145343,0,0,0.0239468,3.68753,-2.40031e-15,-5.9242000000000004e-18,-1.22355e-16,0.00657153,0.131024,-2.03083,0.838895,1e-05,0.563704,3.57354,-1.36658,-19.49,17.49,36.98
2011-08-05 16:27:00,146451,0,0,0.0262747,3.67797,-2.39212e-15,-5.73884e-18,-1.21757e-16,0.00655571,0.130911,-2.07147,0.828532,1e-05,0.566433,3.21596,-1.63076,-19.9,15.97,35.87
2011-08-05 16:28:00,147559,0,0,0.031909,3.67307,-2.38691e-15,-5.8072400000000015e-18,-1.21388e-16,0.00655021,0.130794,-2.10108,0.819253,1e-05,0.567502,2.82332,-1.84339,-19.56,13.44,33.01
2011-08-05 16:29:00,148667,0,0,0.0376606,3.67672,-2.38723e-15,-6.5860100000000015e-18,-1.21363e-16,0.00655709,0.130668,-2.11249,0.809641,1e-05,0.566292,2.58884,-2.025,-19.51,10.27,29.78
2011-08-05 16:30:00,149775,0,0,0.0433722,3.68383,-2.38975e-15,-7.610630000000001e-18,-1.21288e-16,0.00656463,0.130529,-2.11833,0.799064,1e-05,0.563607,2.38134,-2.15731,-19.58,7.45,27.03
2011-08-05 16:31:00,150883,0,0,0.0479695,3.68904,-2.39105e-15,-8.371770000000001e-18,-1.20814e-16,0.006565,0.130378,-2.1281,0.790259,1e-05,0.559366,2.27746,-2.19343,-20.28,4.52,24.8
2011-08-05 16:32:00,151991,0,0,0.0515914,3.6942,-2.3925e-15,-9.2505e-18,-1.20101e-16,0.0065653,0.130223,-2.13519,0.78378,1e-05,0.555711,2.26615,-2.11267,-20.43,3.8,24.23
2011-08-05 16:33:00,153100,0,0,0.000429859,3.7006,-2.39495e-15,-1.0259e-17,-1.19418e-16,0.00656898,0.130072,-2.13828,0.779436,1e-05,0.552965,2.35502,-2.012,-20.12,4.1,24.23
2011-08-05 16:34:00,154209,0,0,0.00135726,3.70852,-2.39838e-15,-1.10818e-17,-1.19065e-16,0.00657557,0.129932,-2.13736,0.77232,1e-05,0.551564,2.59978,-1.87741,-19.75,4.23,23.98
2011-08-05 16:35:00,155318,0,0,0.00120044,3.71765,-2.40256e-15,-1.18468e-17,-1.19048e-16,0.00658365,0.129806,-2.13061,0.762129,1e-05,0.552821,3.01655,-1.58847,-19.37,5.94,25.31
2011-08-05 16:36:00,156427,0,0,0.00160913,3.72798,-2.40757e-15,-1.27432e-17,-1.19214e-16,0.00659321,0.129692,-2.12046,0.753119,1e-05,0.582293,3.61949,-1.10431,-18.31,7.51,25.82
2011-08-05 16:37:00,157536,0,0,8.69316e-05,3.74012,-2.41395e-15,-1.36061e-17,-1.19426e-16,0.00660693,0.129583,-2.11144,0.744162,1e-05,0.563447,4.03686,-0.901898,-17.94,7.98,25.92
2011-08-05 16:38:00,158644,0,0,0.0523811,3.75507,-2.42242e-15,-1.43064e-17,-1.19445e-16,0.0066249,0.129473,-2.10085,0.735882,1e-05,0.574057,4.28928,-0.743214,-18.27,7.31,25.59
2011-08-05 16:39:00,159752,0,0,0.0480703,3.77361,-2.43341e-15,-1.48048e-17,-1.19045e-16,0.00664575,0.129351,-2.08726,0.736891,1e-05,0.584402,4.21277,-0.67928,-18.92,8.38,27.3
2011-08-05 16:40:00,160861,0,0,0.00868525,3.79525,-2.44655e-15,-1.50426e-17,-1.18348e-16,0.00666918,0.129212,-2.07333,0.74513,1e-05,0.594498,4.14742,-0.638511,-19.89,7.92,27.81
2011-08-05 16:41:00,161987,0,0,0.00341667,3.81839,-2.4607e-15,-1.49632e-17,-1.17501e-16,0.0066955,0.129054,-2.05473,0.754714,1e-05,0.607854,4.07699,-0.662632,-21.31,7.43,28.74
2011-08-05 16:42:00,163134,0,0,0.0342202,3.84078,-2.47432e-15,-1.45436e-17,-1.16383e-16,0.0067239,0.12888,-2.03394,0.768154,1e-05,0.617687,3.96871,-0.665155,-22.53,6.64,29.17
2011-08-05 16:43:00,164300,0,0,0.0148956,3.85822,-2.4849e-15,-1.42333e-17,-1.15532e-16,0.0067528,0.128688,-2.02564,0.779637,1e-05,0.654868,4.09693,-0.632735,-23.51,6.3,29.8
2011-08-05 16:44:00,165479,0,0,0.0321731,3.86737,-2.49047e-15,-1.43927e-17,-1.15375e-16,0.00677733,0.128477,-2.0325,0.78337,1e-05,0.689578,4.35643,-0.563345,-24.31,5.92,30.24
2011-08-05 16:45:00,166666,0,0,0.0428455,3.86985,-2.49175e-15,-1.45452e-17,-1.15276e-16,0.00678981,0.128244,-2.04275,0.786541,1e-05,0.7295,4.53942,-0.431553,-25.37,5.42,30.79
2011-08-05 16:46:00,167860,0,0,0.0328778,3.86892,-2.49069e-15,-1.44356e-17,-1.14815e-16,0.00679151,0.127992,-2.04958,0.794053,1e-05,0.750059,4.70201,-0.240041,-26.31,4.46,30.76
2011-08-05 16:47:00,169058,0,0,0.0203732,3.86646,-2.48862e-15,-1.42304e-17,-1.14033e-16,0.00678951,0.127721,-2.05541,0.805835,1e-05,0.725459,4.82534,-0.0886886,-26.97,3.29,30.26
2011-08-05 16:48:00,170260,0,0,0.00116865,3.86347,-2.48626e-15,-1.3914e-17,-1.13078e-16,0.00678622,0.127432,-2.06312,0.818334,1e-05,0.667087,4.95855,0.0228395,-27.57,3.6,31.17
2011-08-05 16:49:00,171467,0,0,0.00552567,3.86044,-2.48398e-15,-1.35171e-17,-1.12132e-16,0.00678269,0.127126,-2.07029,0.830071,1e-05,0.674894,5.01672,0.0674514,-28.38,4.44,32.82
2011-08-05 16:50:00,172678,0,0,0.00344788,3.85778,-2.48212e-15,-1.32913e-17,-1.11296e-16,0.00678038,0.126804,-2.07696,0.844401,1e-05,0.682731,4.88746,0.00793225,-28.88,5.7,34.58
2011-08-05 16:51:00,173890,0,0,0.0337788,3.85354,-2.4793e-15,-1.32366e-17,-1.10205e-16,0.00677662,0.126463,-2.08453,0.859495,1e-05,0.69032,4.35635,-0.425135,-29.63,8.49,38.12
2011-08-05 16:52:00,175102,0,0,0.0211721,3.84548,-2.4739e-15,-1.31613e-17,-1.08457e-16,0.0067688,0.126102,-2.0911,0.874058,1e-05,0.696091,3.57889,-0.951386,-30.74,11.74,42.48
2011-08-05 16:53:00,176310,0,0,0.019056,3.83631,-2.46792e-15,-1.30326e-17,-1.06629e-16,0.00676136,0.125726,-2.09807,0.889224,1e-05,0.700169,2.97811,-1.30986,-31.46,10.97,42.43
2011-08-05 16:54:00,177506,0,0,0.00599105,3.82816,-2.46293e-15,-1.28568e-17,-1.05185e-16,0.00675668,0.125336,-2.10766,0.905622,1e-05,0.700158,2.52864,-1.53132,-31.83,8.19,40.02
2011-08-05 16:55:00,178684,0,0,0.0182437,3.81931,-2.45763e-15,-1.26679e-17,-1.03826e-16,0.00674885,0.12494,-2.12026,0.919514,1e-05,0.699944,2.38672,-1.62555,-30.85,5.3,36.15
2011-08-05 16:56:00,179847,0,0,0.0367603,3.80894,-2.45134e-15,-1.24671e-17,-1.02354e-16,0.00673621,0.12454,-2.13364,0.933434,1e-05,0.700713,2.33259,-1.57617,-29.68,4.49,34.17
2011-08-05 16:57:00,181003,0,0,0.0339392,3.79752,-2.44433e-15,-1.2217e-17,-1.00804e-16,0.00672106,0.124138,-2.14742,0.952183,1e-05,0.692252,2.38979,-1.44906,-29.58,3.18,32.76
2011-08-05 16:58:00,182159,0,0,0.00249504,3.78563,-2.43698e-15,-1.18626e-17,-9.92705e-17,0.0067041,0.123738,-2.16231,0.969906,1e-05,0.684108,2.39049,-1.44459,-29.78,2.15,31.93
2011-08-05 16:59:00,183320,0,0,0.0448553,3.7743,-2.42999e-15,-1.15005e-17,-9.7852e-17,0.00668744,0.123345,-2.17642,0.985068,1e-05,0.677838,2.38508,-1.37873,-30.35,1.87,32.22
2011-08-05 17:00:00,184489,0,0,0.0308539,3.76478,-2.42423e-15,-1.13601e-17,-9.66093e-17,0.00667361,0.122963,-2.19117,0.997652,1e-05,0.673112,2.59644,-1.12576,-30.23,3.36,33.59
2011-08-05 17:01:00,185662,0,0,0.00752435,3.7568,-2.41947e-15,-1.12401e-17,-9.55104e-17,0.00665919,0.122588,-2.20569,1.00597,1e-05,0.670653,2.89283,-0.921341,-30.1,5.01,35.11
2011-08-05 17:02:00,186839,0,0,0.0242322,3.74982,-2.41532e-15,-1.08418e-17,-9.45391e-17,0.00664019,0.122216,-2.22129,1.01086,1e-05,0.670908,3.03972,-0.830795,-30.03,5.56,35.59
2011-08-05 17:03:00,188026,0,0,0.00191671,3.74533,-2.41271e-15,-1.02576e-17,-9.38735e-17,0.00661974,0.121842,-2.23861,1.01341,1e-05,0.672576,3.1224,-0.808633,-30.14,6.62,36.76
2011-08-05 17:04:00,189220,0,0,0.0418438,3.74289,-2.4114e-15,-9.626360000000001e-18,-9.34349e-17,0.00660023,0.121468,-2.25602,1.01638,1e-05,0.677641,3.07549,-0.824714,-30.67,7.42,38.09
2011-08-05 17:05:00,190418,0,0,0.0155736,3.74002,-2.40994e-15,-9.01061e-18,-9.28955e-17,0.00658042,0.121098,-2.27478,1.02175,1e-05,0.680363,3.03612,-0.797945,-31.12,7.78,38.9
2011-08-05 17:06:00,191614,0,0,0.0476917,3.73437,-2.40662e-15,-8.40764e-18,-9.23589e-17,0.00655588,0.120735,-2.29371,1.02686,1e-05,0.681088,3.08332,-0.735467,-31.81,8.36,40.18
2011-08-05 17:07:00,192805,0,0,0.049281,3.72621,-2.40147e-15,-7.77104e-18,-9.19438e-17,0.00652534,0.120382,-2.31321,1.03089,1e-05,0.682182,3.18225,-0.661484,-32.37,8.38,40.76
2011-08-05 17:08:00,193995,0,0,0.0124017,3.71969,-2.39726e-15,-7.035430000000001e-18,-9.15308e-17,0.00649461,0.120037,-2.3319,1.03213,1e-05,0.681526,3.32449,-0.591021,-32.93,8.69,41.62
2011-08-05 17:09:00,195188,0,0,0.00980174,3.71491,-2.39407e-15,-6.2127900000000016e-18,-9.10479e-17,0.00646436,0.119699,-2.34693,1.0338,1e-05,0.682962,3.38907,-0.491282,-33.54,8.33,41.87
2011-08-05 17:10:00,196382,0,0,0.0304744,3.70921,-2.39021e-15,-5.3428800000000016e-18,-9.04615e-17,0.00643278,0.119367,-2.36113,1.03989,1e-05,0.684945,3.45127,-0.332041,-34.23,8.02,42.25
2011-08-05 17:11:00,197575,0,0,0.0361111,3.70305,-2.38605e-15,-4.36358e-18,-8.96937e-17,0.00640278,0.119039,-2.37731,1.04598,1e-05,0.685568,3.642,-0.159996,-35.02,8.14,43.16
2011-08-05 17:12:00,198767,0,0,0.027482,3.69596,-2.38132e-15,-3.13922e-18,-8.87866e-17,0.00637309,0.118712,-2.39517,1.04987,1e-05,0.687568,3.71254,-0.142833,-35.79,9.01,44.81
2011-08-05 17:13:00,199958,0,0,0.0265639,3.6868,-2.3754e-15,-1.6703200000000001e-18,-8.78517e-17,0.00634013,0.118381,-2.41249,1.05611,1e-05,0.689842,3.44879,-0.285952,-36.88,9.63,46.51
2011-08-05 17:14:00,201148,0,0,0.0211054,3.67618,-2.36879e-15,-2.01163e-19,-8.69166e-17,0.00630455,0.118046,-2.42843,1.06711,1e-05,0.691906,3.15542,-0.39969,-37.63,8.85,46.48